Location: Hermaringen
(48.5952°N, 10.2585°E)
Time: 00:39:43
(UTC+00:00)

PSLV R/B - Pass Details

Date: 18 November 2025
Orbit: 561 x 590 km, 98.0° (Epoch: 05 December)

Event Time Altitude Azimuth Distance (km) Brightness Sun altitude
Rises 17:50:05 0° 170° (S) 2,757 6.8 -21.9°
Reaches altitude 10° 17:52:14 10° 172° (S) 1,861 6.0 -22.3°
Maximum altitude 17:56:15 72° 257° (WSW) 600 3.5 -22.9°
Drops below altitude 10° 18:00:17 10° 342° (NNW) 1,866 6.2 -23.6°
Sets 18:02:26 0° 345° (NNW) 2,766 7.1 -23.9°
